DCCHB EDDN-EDRY

Flight info

Callsign DCCHB
Flight time 0h 22m
Altitude 22000
Route SUKAD1G/28 SUKAD DCT BOWEK DCT ASLEP DCT KETEG VFR DCT
Aircraft LJ35/M-SGHRWXY/SB1

Departure

Time 2026-05-04 18:47
Airport Nuremberg Airport (EDDN)

Arrival

Time 2026-05-04 19:10
Airport Speyer Airfield (EDRY)
Time Latitude Longitude Altitude Speed Heading
2026-05-04 18:28 49.49539 11.07136 1020 ft 0 kts
2026-05-04 18:36 49.49552 11.07138 1020 ft 4 kts
2026-05-04 18:36 49.49559 11.07140 1020 ft 1 kts
2026-05-04 18:37 49.49579 11.07155 1020 ft 6 kts 53°
2026-05-04 18:37 49.49621 11.07215 1019 ft 12 kts
2026-05-04 18:37 49.49696 11.07235 1017 ft 11 kts 17°
2026-05-04 18:37 49.49722 11.07348 1017 ft 14 kts 101°
2026-05-04 18:38 49.49708 11.07485 1018 ft 13 kts 98°
2026-05-04 18:38 49.49696 11.07616 1019 ft 12 kts 98°
2026-05-04 18:38 49.49683 11.07731 1021 ft 10 kts 105°
2026-05-04 18:38 49.49638 11.07769 1021 ft 8 kts 193°
2026-05-04 18:39 49.49585 11.07791 1021 ft 9 kts 118°
2026-05-04 18:39 49.49574 11.07885 1021 ft 10 kts 98°
2026-05-04 18:39 49.49563 11.08007 1022 ft 14 kts 97°
2026-05-04 18:39 49.49547 11.08165 1022 ft 15 kts 99°
2026-05-04 18:40 49.49534 11.08307 1023 ft 8 kts 81°
2026-05-04 18:40 49.49554 11.08347 1024 ft 7 kts 22°
2026-05-04 18:40 49.49598 11.08362 1027 ft 6 kts 25°
2026-05-04 18:40 49.49627 11.08412 1028 ft 6 kts 53°
2026-05-04 18:41 49.49663 11.08487 1029 ft 7 kts 54°
2026-05-04 18:41 49.49684 11.08531 1030 ft 7 kts 51°
2026-05-04 18:41 49.49697 11.08549 1030 ft 0 kts 30°
2026-05-04 18:46 49.49715 11.08562 1030 ft 7 kts 18°
2026-05-04 18:46 49.49766 11.08566 1031 ft 7 kts 351°
2026-05-04 18:46 49.49799 11.08526 1031 ft 2 kts 272°
2026-05-04 18:46 49.49799 11.08521 1031 ft 0 kts 273°
2026-05-04 18:47 49.49800 11.08507 1031 ft 16 kts 278°
2026-05-04 18:47 49.49869 11.07812 1022 ft 115 kts 278°
2026-05-04 18:47 49.50037 11.06184 1324 ft 175 kts 281°
2026-05-04 18:47 49.50223 11.04311 2080 ft 175 kts 281°
2026-05-04 18:48 49.50408 11.02424 2532 ft 191 kts 280°
2026-05-04 18:48 49.50619 11.00309 3114 ft 208 kts 280°
2026-05-04 18:48 49.50850 10.97940 3526 ft 247 kts 279°
2026-05-04 18:48 49.51123 10.95051 3778 ft 296 kts 279°
2026-05-04 18:49 49.51442 10.91713 4125 ft 329 kts 278°
2026-05-04 18:49 49.51780 10.88225 5015 ft 323 kts 278°
2026-05-04 18:49 49.52106 10.84809 5834 ft 325 kts 277°
2026-05-04 18:49 49.52437 10.81354 6788 ft 326 kts 277°
2026-05-04 18:50 49.52769 10.77905 7758 ft 327 kts 276°
2026-05-04 18:50 49.53101 10.74426 8707 ft 329 kts 276°
2026-05-04 18:50 49.53433 10.70931 9596 ft 334 kts 275°
2026-05-04 18:50 49.53778 10.67251 10251 ft 361 kts 275°
2026-05-04 18:51 49.54149 10.63314 11016 ft 374 kts 276°
2026-05-04 18:51 49.54528 10.59348 11663 ft 390 kts 276°
2026-05-04 18:51 49.54959 10.54679 11914 ft 401 kts 275°
2026-05-04 18:51 49.55037 10.50867 12103 ft 402 kts 265°
2026-05-04 18:52 49.54873 10.46518 12340 ft 399 kts 265°
2026-05-04 18:52 49.54761 10.42343 12551 ft 393 kts 266°
2026-05-04 18:52 49.54640 10.37745 12767 ft 388 kts 265°
2026-05-04 18:52 49.54517 10.34024 12941 ft 388 kts 265°
2026-05-04 18:53 49.54355 10.29309 12952 ft 396 kts 265°
2026-05-04 18:53 49.54234 10.25530 13198 ft 406 kts 265°
2026-05-04 18:53 49.54081 10.20579 13727 ft 407 kts 265°
2026-05-04 18:53 49.53962 10.16885 14154 ft 401 kts 265°
2026-05-04 18:54 49.53818 10.12583 14413 ft 403 kts 265°
2026-05-04 18:54 49.53670 10.08267 14682 ft 405 kts 265°
2026-05-04 18:54 49.53509 10.03466 14981 ft 406 kts 265°
2026-05-04 18:54 49.53377 9.99586 15218 ft 407 kts 265°
2026-05-04 18:55 49.53229 9.95277 15582 ft 394 kts 265°
2026-05-04 18:55 49.52943 9.87109 15957 ft 377 kts 265°
2026-05-04 18:55 49.52784 9.83070 15729 ft 383 kts 263°
2026-05-04 18:56 49.52448 9.78957 15252 ft 383 kts 261°
2026-05-04 18:56 49.52083 9.74952 14801 ft 383 kts 261°
2026-05-04 18:56 49.51732 9.70913 14353 ft 377 kts 261°
2026-05-04 18:56 49.51400 9.66952 13910 ft 369 kts 261°
2026-05-04 18:57 49.51067 9.63132 13409 ft 347 kts 261°
2026-05-04 18:57 49.50757 9.59568 12912 ft 327 kts 260°
2026-05-04 18:57 49.50459 9.56157 12404 ft 317 kts 260°
2026-05-04 18:57 49.50167 9.52873 11850 ft 304 kts 260°
2026-05-04 18:58 49.49888 9.49710 11296 ft 293 kts 260°
2026-05-04 18:58 49.49618 9.46657 10760 ft 284 kts 259°
2026-05-04 18:58 49.49354 9.43697 10276 ft 275 kts 259°
2026-05-04 18:58 49.49094 9.40799 9806 ft 273 kts 259°
2026-05-04 18:59 49.48835 9.37903 9303 ft 273 kts 259°
2026-05-04 18:59 49.48575 9.34991 8848 ft 275 kts 259°
2026-05-04 18:59 49.48314 9.32085 8445 ft 276 kts 259°
2026-05-04 18:59 49.48049 9.29153 8049 ft 277 kts 259°
2026-05-04 19:00 49.47784 9.26213 7668 ft 277 kts 260°
2026-05-04 19:00 49.47518 9.23290 7296 ft 276 kts 259°
2026-05-04 19:00 49.47252 9.20382 6925 ft 271 kts 260°
2026-05-04 19:00 49.46994 9.17520 6559 ft 270 kts 260°
2026-05-04 19:01 49.46481 9.14776 6144 ft 268 kts 239°
2026-05-04 19:01 49.45359 9.12468 5948 ft 272 kts 230°
2026-05-04 19:01 49.44192 9.10145 5764 ft 277 kts 232°
2026-05-04 19:01 49.43036 9.07742 5549 ft 281 kts 232°
2026-05-04 19:02 49.41882 9.05401 5320 ft 270 kts 229°
2026-05-04 19:02 49.40634 9.03277 5075 ft 267 kts 226°
2026-05-04 19:02 49.39373 9.01161 4938 ft 270 kts 226°
2026-05-04 19:02 49.38103 8.99039 4821 ft 269 kts 226°
2026-05-04 19:03 49.36838 8.96922 4639 ft 268 kts 226°
2026-05-04 19:03 49.35579 8.94815 4448 ft 268 kts 227°
2026-05-04 19:03 49.34496 8.92486 4240 ft 270 kts 240°
2026-05-04 19:03 49.33697 8.89866 4054 ft 272 kts 247°
2026-05-04 19:04 49.32974 8.87178 3876 ft 272 kts 247°
2026-05-04 19:04 49.32203 8.84551 3654 ft 268 kts 245°
2026-05-04 19:04 49.31414 8.81983 3413 ft 265 kts 245°
2026-05-04 19:04 49.30648 8.79436 3174 ft 261 kts 246°
2026-05-04 19:05 49.29916 8.76980 2968 ft 246 kts 246°
2026-05-04 19:05 49.29219 8.74649 2790 ft 236 kts 246°
2026-05-04 19:05 49.28545 8.72404 2590 ft 228 kts 246°
2026-05-04 19:05 49.27889 8.70220 2446 ft 226 kts 247°
2026-05-04 19:06 49.27231 8.68028 2306 ft 228 kts 246°
2026-05-04 19:06 49.26567 8.65816 2172 ft 229 kts 246°
2026-05-04 19:06 49.25896 8.63592 2040 ft 230 kts 247°
2026-05-04 19:06 49.25227 8.61374 1913 ft 229 kts 247°
2026-05-04 19:07 49.24573 8.59211 1786 ft 220 kts 247°
2026-05-04 19:07 49.23941 8.57113 1647 ft 214 kts 247°
2026-05-04 19:07 49.23328 8.55079 1503 ft 206 kts 247°
2026-05-04 19:07 49.22881 8.53078 1356 ft 188 kts 264°
2026-05-04 19:08 49.22942 8.51234 1183 ft 166 kts 283°
2026-05-04 19:08 49.23330 8.49720 1160 ft 141 kts 301°
2026-05-04 19:08 49.23910 8.48574 1161 ft 135 kts 315°
2026-05-04 19:08 49.24679 8.47687 1170 ft 141 kts 331°
2026-05-04 19:09 49.25587 8.47156 1106 ft 143 kts 345°
2026-05-04 19:09 49.26558 8.46774 935 ft 142 kts 344°
2026-05-04 19:09 49.27489 8.46390 810 ft 140 kts 343°
2026-05-04 19:09 49.28433 8.46004 644 ft 139 kts 343°
2026-05-04 19:10 49.29381 8.45617 427 ft 141 kts 345°
2026-05-04 19:10 49.30255 8.45263 330 ft 88 kts 346°
2026-05-04 19:10 49.30500 8.45165 329 ft 14 kts 345°
2026-05-04 19:10 49.30576 8.45138 330 ft 8 kts
2026-05-04 19:11 49.30584 8.45124 330 ft 7 kts 164°
2026-05-04 19:11 49.30506 8.45163 329 ft 15 kts 166°
2026-05-04 19:11 49.30465 8.45247 329 ft 10 kts 63°
2026-05-04 19:11 49.30436 8.45317 331 ft 11 kts 165°
2026-05-04 19:12 49.30358 8.45349 331 ft 10 kts 165°
2026-05-04 19:12 49.30295 8.45411 331 ft 7 kts 75°
2026-05-04 19:12 49.30311 8.45433 332 ft 3 kts 284°
2026-05-04 19:13 49.30310 8.45422 331 ft 0 kts 257°